www.pogodaiklimat.ru

Погода и климат >> Архив погоды >> Россия >> Ханты-Мансийский АО >> Угут


АРХИВ ПОГОДЫ в Угуте

Время (UTC), дата Ветер
(напр.,м/с)
 
Видим.   Явления Облачность Т
(С)
Тd
(С)
f
(%)
Тe
(С)
Тes
(С)
Комфортность P
(гПа)
Po
(гПа)
Тmin
(С)
Tmax
(С)
R
(мм)
R24
(мм)
S
(см)
21 17.05 ЮВ 1 10 км 10/10 600 м
[Cb cap]
+5.9 +4.1 88 +5 +5 999.9 993.8
00 18.05 В 2 10 км слаб. ливневой дождь 10/10 600 м
[Cb cap]
+6.5 +4.3 86 +4 +4 996.5 990.5
03 18.05 ЮВ 1 10 км слаб. дождь 10/6 300 м
[Frnb As op]
+6.9 +5.6 91 +6 +6 994.7 988.7 +5.6 5
06 18.05 З 6 4000 м слаб. морось {дождь} 10/10 300 м
[Frnb]
+6.6 +4.9 89 +2 +2 995.2 989.2
09 18.05 З 4 10 км {морось} 10/10 300 м
[St]
+5.1 +3.4 89 +1 +1 997.8 991.7
12 18.05 ЮЗ 2 10 км {морось} 10/10 600 м
[Cb cap]
+5.5 +3.2 85 +3 +3 999.1 993.0
15 18.05 ЮЗ 1 10 км {ливн. осадки} 8/0
[Ac trans Ci fib]
+4.9 +2.9 87 +4 +4 999.2 993.1 +7.9 2
18 18.05 штиль 0 10 км {ливн. осадки} 6/0
[Ac trans]
+1.8 +0.8 93 +1 +1 999.0 992.8
21 18.05 штиль 0 н/о н/о 0.0 -0.9 94 -1 -1 998.1 991.9
00 19.05 штиль 0 10 км ясно +1.1 +0.3 94 -0 +1 998.1 991.9
03 19.05 ЮЗ 2 10 км 3/0
[Ac trans]
+8.1 +1.4 63 +6 +12 998.0 992.0 -1.3
06 19.05 З 3 10 км 8/8 600 м
[Cb cap]
+11.2 -1.9 40 +10 +12 998.0 992.0
09 19.05 Ю 2
{12}
10 км {ливн. осадки} 9/8 600 м
[Cb cap Cc]
+10.2 +0.2 50 +9 +11 999.2 993.2
12 19.05 В 2 10 км в посл. час ливневой дождь 9/6 600 м
[Cb cap Ac cuf Ci fib]
+8.1 +4.0 75 +6 +7 999.5 993.5
15 19.05 СВ 3 10 км в посл. час ливневой дождь 8/6 600 м
[Cb cap Ac cuf]
+6.2 +4.0 86 +3 +3 999.8 993.7 +12.6 3
18 19.05 В 2 10 км в посл. час ливневой дождь 9/9 600 м
[Cb cap]
+6.5 +3.3 80 +4 +4 998.1 992.0
21 19.05 СВ 1 10 км 8/3 600 м
[Cb cap Ac lent]
+4.5 +2.4 86 +3 +3 996.0 989.9
00 20.05 С 2 10 км 8/8 600 м
[Cb cap Ac cuf]
+4.3 +2.5 88 +1 +2 994.0 987.9
03 20.05 С 3 10 км в посл. час ливневой дождь 10/8 600 м
[Cb cap Ac As]
+5.8 +3.6 86 +2 +3 993.2 987.2 +3.7 0.5
06 20.05 С 3 10 км в посл. час ливневой дождь 9/9 300 м
[Cb cap]
+9.1 +3.7 69 +7 +8 994.0 988.1
09 20.05 СЗ 2
{12}
10 км {ливн. осадки} 10/8 300 м
[Cb cap As trans]
+9.3 +4.7 73 +8 +9 996.0 990.0
12 20.05 С 3 10 км {ливн. осадки} 10/4 600 м
[Cb cap Ac lent Cs]
+9.8 +3.8 66 +8 +9 998.2 992.2
15 20.05 штиль 0 10 км в посл. час ливневой дождь 8/3 600 м
[Cb cap Ac cuf Ci]
+7.6 +4.4 80 +7 +7 999.3 993.3 +10.1 1
18 20.05 З 1 10 км {ливн. осадки} 9/8 600 м
[Cb cap Ac cuf Ci fib]
+4.1 +2.9 92 +3 +3 1000.0 993.9
21 20.05 З 2 10 км {ливн. осадки} 9/9 600 м
[Cb cap]
+5.0 +3.0 87 +2 +2 999.8 993.7
00 21.05 СЗ 2 10 км {ливн. осадки} 10/3 600 м
[Cb cap As trans]
+4.6 +2.8 88 +2 +2 1000.1 994.0
03 21.05 СЗ 2 10 км 10/3 300 м
[Frnb As trans]
+5.4 +2.7 83 +3 +5 1001.0 994.9 +3.9 0.3
06 21.05 С 4 10 км в посл. час ливневой дождь 10/10 600 м
[Cb cap]
+8.3 +1.8 64 +5 +5 1001.8 995.7
09 21.05 СЗ 2 10 км {ливн. осадки} 10/10 600 м
[Cb cap]
+9.2 -0.1 52 +8 +8 1002.8 996.7
12 21.05 СЗ 3 10 км {ливн. осадки} 9/9 600 м
[Cb cap]
+8.9 -0.1 53 +7 +7 1004.0 998.0
15 21.05 СЗ 3 10 км 6/6 600 м
[Cb cap]
+7.3 -1.4 54 +5 +5 1004.7 998.6 +9.6 0.6
18 21.05 С 3 10 км 10/8 600 м
[Cb cap As op]
+3.9 +0.2 77 0 0 1005.9 999.7
21 21.05 З 2 10 км 6/0
[Ac trans]
+2.0 +0.2 88 -1 -1 1006.1 999.9
00 22.05 З 2 10 км ясно +1.5 -0.8 85 -2 -1 1006.3 1000.1
03 22.05 З 4 10 км 1/1 600 м
[Cu hum]
+4.6 -4.1 53 +1 +5 1006.5 1000.3 +1.0
06 22.05 СЗ 4 10 км 1/0
[Ci fib]
+7.2 -9.2 30 +5 +13 1006.8 1000.7
09 22.05 С 3
{12}
10 км 1/0
[Ci fib]
+9.8 -8.3 27 +8 +18 опасность
простуды
1007.0 1001.0
12 22.05 С 4 10 км 4/1 600 м
[Cu hum Ci fib]
+9.9 -7.8 28 +8 +10 1007.3 1001.3
15 22.05 С 2 10 км 4/0
[Ac trans Ci fib]
+7.4 -5.3 40 +6 +6 1008.2 1002.1 +10.5
18 22.05 штиль 0 10 км 4/0
[Ci fib]
+0.6 -2.7 79 -0 -0 1009.2 1002.9
21 22.05 штиль 0 10 км 8/0
[Ci fib]
-1.7 -3.4 88 -3 -3 1009.4 1003.1
00 23.05 штиль 0 10 км 9/0
[Ci fib]
+2.5 -1.5 75 +2 +3 1009.5 1003.3
03 23.05 ЮЗ 2 10 км 8/0
[Ci fib]
+8.6 -4.2 40 +7 +13 1009.2 1003.1 -1.9
06 23.05 ЮЗ 4 10 км 8/8 600 м
[Cb cap]
+12.7 -6.8 25 +11 +13 1008.2 1002.2
09 23.05 ЮЗ 3
{10}
10 км 9/6 600 м
[Cb cap Ci fib]
+13.1 -6.0 26 +12 +16 1007.8 1001.9
12 23.05 ЮЗ 4
{10}
10 км 6/6 600 м
[Cb cap]
+13.7 -5.0 27 +13 +14 1007.3 1001.4
15 23.05 ЮЗ 3
{10}
10 км 3/0
[Ci fib]
+13.3 -4.4 29 +13 +13 1006.6 1000.6 +14.9
18 23.05 Ю 1 10 км 1/0
[Ci fib]
+8.8 -2.2 46 +9 +9 1006.2 1000.2
21 23.05 Ю 2 10 км 3/0
[Ci fib]
+7.3 -1.8 52 +6 +6 1004.7 998.6
00 24.05 Ю 2 10 км 9/0
[Ac cast Ci fib]
+8.2 -1.9 49 +7 +7 1002.1 996.0
03 24.05 Ю 4 10 км 10/0
[Cs]
+13.3 -1.5 36 +12 +16 998.6 992.7 +6.9
06 24.05 Ю 6-17
{17}
10 км 10/8 600 м
[Cb cap Cs]
+16.5 -3.1 26 +16 +16 994.8 989.0
09 24.05 Ю 4
{18}
10 км слаб. дождь 10/8 300 м
[Frnb As op]
+8.5 +6.8 89 +5 +6 995.0 989.0
12 24.05 З 4-11
{10}
10 км слаб. дождь 10/10 300 м
[Frnb Ns]
+9.5 +8.0 90 +7 +7 996.5 990.5
15 24.05 З 3
{11}
10 км {дождь} 9/0
[Ac trans]
+5.5 +3.0 84 +2 +2 999.5 993.5 +16.6 5

 

Местоположение метеостанции Угут (Ханты-Мансийский АО, Россия): широта 60.50 долгота 74.02 высота над уровнем моря 48 м.

В архиве по умолчанию представлена погода в Угуте за последнюю неделю. Архивные данные за месяц целиком и за предыдущие месяцы, начиная с января 2011 года, Вы можете получить, выбрав интересующий диапазон дат из раскрывающегося списка и нажав кнопку "Ввод!".


*Определитесь, кто Вы:
робот инопланетянин человек

Внимание! Время в таблицах - всемирное. Для получения местного времени необходимо прибавить поправку, которая равна 5 ч.

Смотрите также архив погоды в соседних городах и на ближайших метеорологических станциях:

Погода в Сургуте (Ханты-Мансийский АО, Россия) (98 км)
Погода в Нефтеюганске (Ханты-Мансийский АО, Россия) (99 км)
Погода в Таурово (Ханты-Мансийский АО, Россия) (110 км)
Погода в Нижневартовске (Ханты-Мансийский АО, Россия) (148 км)
Погода в Салыме (Ханты-Мансийский АО, Россия) (148 км)
Погода в Сытомино (Ханты-Мансийский АО, Россия) (172 км)
Погода в Когалыме (Ханты-Мансийский АО, Россия) (194 км)
Погода в Александровском (Томская область, Россия) (211 км)
Погода в Радужном (Ханты-Мансийский АО, Россия) (255 км)
Погода в Новом Васюгане (Томская область, Россия) (256 км)

Пояснения к столбцам:

Ветер - указаны скорость ветра в м/с - средняя за 10 мин, порывы в срок и между сроками (в фигурных скобках) и направление, откуда дует ветер: С - северный, СВ - северо-восточный, В - восточный, ЮВ - юго-восточный, Ю - южный, ЮЗ - юго-западный, З - западный, СЗ - северо-западный.
Видимость - горизонтальная дальность видимости в метрах или километрах. При видимости от 1 до 10 км при отсутствии осадков обычно наблюдается дымка, при ухудшении видимости до 1 км и менее - туман. В сухую погоду видимость может ухудшаться дымом, пылью или мглою.
Явления - указаны атмосферные явления, наблюдавшиеся в срок или в последний час перед сроком; фигурными скобками обозначены явления, наблюдавшиеся между сроками (за 1-3 часа до срока); квадратными скобками обозначены град или гололедные отложения с указанием их диаметра в мм.
Облачность - указаны через наклонную черту общая и нижняя облачность в баллах и высота нижней границы облаков в метрах; квадратными скобками обозначены формы облаков: Ci - перистые, Cs - перисто-слоистые, Cc - перисто-кучевые, Ac - высококучевые, As - высокослоистые, Sc - слоисто-кучевые, Ns - слоисто-дождевые, Cu - кучевые, Cb - кучево-дождевые. Подробнее классификацию облаков см. в Атласе облаков (PDF).
T - Температура воздуха - температура, измеренная на высоте 2 м над землей.
Td - Температура точки росы - температура, при понижении до которой содержащийся в воздухе водяной пар достигнет насыщения.
f - Относительная влажность воздуха - влажноcть воздуха, измеренная на высоте 2 м над землей.
Te - Эффективная температура - температура, которую ощущает одетый по сезону человек в тени. Характеристика душности погоды. При расчете учитывается влияние влажности воздуха и скорости ветра на теплоощущения человека.
Tes - Эффективная температура на солнце - температура, которую ощущает человек, с поправкой на солнечный нагрев. Характеристика знойности погоды. Зависит от высоты солнца над горизонтом, облачности и скорости ветра. Ночью, в пасмурную погоду, а также при ветре 12 м/с и более поправка равна нулю.
P - Атмосферное давление - приведенное к уровню моря атмосферное давление.
Po - Атмосферное давление - измеренное на уровне метеостанции атмосферное давление.
Tmin - Минимальная температура - минимум температуры воздуха на высоте 2 м над землей.
Tmax - Максимальная температура - максимум температуры воздуха на высоте 2 м над землей.
R - Количество осадков - Количество выпавших осадков за период времени, мм. При наведении курсора мыши на число - период времени, за который выпало указанное количество осадков.
R24 - Количество осадков - Количество выпавших осадков за 24 часа, мм.
S - Снежный покров - Высота снежного покрова, см. При наведении курсора мыши на число - состояние снежного покрова и степень покрытия местности в баллах.